User: anonymous   Login
Location: Unspecified
(0.0000°N, 0.0000°E)
Time: 19:27:29
(UTC+00:00)
Language:

DEORBITSAIL - Orbit

View from above orbital plane
View from above orbital plane
View from above satellite
View from above satellite

Ground track
Ground track

The orbit data is extracted from the following two-line orbital elements,

1 40719U 15032E   24055.56552685  .00007040  00000-0  83368-3 0  9992
2 40719  97.7032 282.7247 0014179 145.3646 214.8496 14.84798335465229
Epoch (UTC): 24 February 2024 13:34:21
Eccentricity: 0.0014179
inclination: 97.7032°
perigee height: 604 km
apogee height: 624 km
right ascension of ascending node: 282.7247°
argument of perigee: 145.3646°
revolutions per day: 14.84798335
mean anomaly at epoch: 214.8496°
orbit number at epoch: 46522

The dashed part of the orbit path shows where the satellite is in the earth's shadow,  

DLR